Hinesville, GA

11:11 AM EDT on August 29, 2016 (GMT -0400)
Wright Army Air Field

Weather History for KLHW - October, 2013

Change the Weather History Date:

Friday, October 4, 2013

  Actual Average Record
Temperature  
Mean Temperature 76 °F -  
Max Temperature 87 °F 82 °F 95 °F (1986)
Min Temperature 66 °F 60 °F 39 °F (1974)
Cooling Degree Days 10    
Growing Degree Days 26 (Base 50)    
Moisture  
Dew Point 71 °F    
Average Humidity 95    
Maximum Humidity 100    
Minimum Humidity 67    
Precipitation  
Precipitation 0.00 in - - ()
Sea Level Pressure  
Sea Level Pressure 30.10 in    
Wind  
Wind Speed 1 mph (NNE)    
Max Wind Speed 7 mph    
Max Gust Speed -    
Visibility 6 miles    
Events Fog    
Averages and records for this station are not official NWS values.
T = Trace of Precipitation, MM = Missing Value Source: NWS Daily Summary

Daily Weather History Graph

Daily Weather History Graph

Search for Another Location

Airport or City:

Trip Planner

Search our weather history database for the weather conditions in past years. The results will help you decide how hot, cold, wet, or windy it might be!

Date:

Astronomy

Oct. 04, 2013 Rise Set
Actual Time 7:22 AM EDT 7:07 PM EDT
Civil Twilight 6:57 AM EDT 7:31 PM EDT
Nautical Twilight 6:29 AM EDT 7:59 PM EDT
Astronomical Twilight 6:01 AM EDT 8:27 PM EDT
Moon 6:55 AM EDT (10/4) 6:50 PM EDT (10/4)
Length of Visible Light 12h 33m
Length of Day
11h 44m
Waning Crescent, 0% of the Moon is Illuminated
Oct 4
Waning Crescent
Oct 4
New
Oct 11
First Quarter
Oct 18
Full
Oct 26
Last Quarter

Hourly Weather History & Observations

Time (EDT) Temp. Heat Index Dew Point Humidity Pressure Visibility Wind Dir Wind Speed Gust Speed Precip Events Conditions
12:58 AM 67.5 °F - 67.5 °F 100% 30.10 in 10.0 mi Calm Calm - N/A   Clear
1:58 AM 66.6 °F - 66.6 °F 100% 30.09 in 10.0 mi Calm Calm - N/A   Partly Cloudy
2:03 AM 66.2 °F - 66.2 °F 100% 30.08 in 8.0 mi Calm Calm - N/A   Partly Cloudy
2:08 AM 66.2 °F - 66.2 °F 100% 30.08 in 2.5 mi Calm Calm - N/A   Clear
2:18 AM 66.2 °F - 66.2 °F 100% 30.08 in 5.0 mi Calm Calm - N/A   Partly Cloudy
2:23 AM 66.2 °F - 66.2 °F 100% 30.08 in 9.0 mi Calm Calm - N/A   Scattered Clouds
2:28 AM 66.2 °F - 66.2 °F 100% 30.08 in 10.0 mi Calm Calm - N/A   Mostly Cloudy
2:53 AM 66.2 °F - 66.2 °F 100% 30.08 in 5.0 mi Calm Calm - N/A   Overcast
2:58 AM 66.9 °F - 66.9 °F 100% 30.09 in 1.5 mi Calm Calm - N/A   Overcast
3:03 AM 68.0 °F - 68.0 °F 100% 30.08 in 0.8 mi Calm Calm - N/A   Mist
3:08 AM 68.0 °F - 68.0 °F 100% 30.08 in 1.2 mi Calm Calm - N/A   Overcast
3:13 AM 68.0 °F - 68.0 °F 100% 30.08 in 3.0 mi Calm Calm - N/A   Overcast
3:23 AM 68.0 °F - 68.0 °F 100% 30.07 in 7.0 mi Calm Calm - N/A   Overcast
3:28 AM 68.0 °F - 68.0 °F 100% 30.07 in 2.5 mi Calm Calm - N/A   Overcast
3:33 AM 68.0 °F - 68.0 °F 100% 30.07 in 1.0 mi Calm Calm - N/A   Mist
3:38 AM 68.0 °F - 68.0 °F 100% 30.07 in 0.5 mi Calm Calm - N/A Fog Fog
3:58 AM 68.4 °F - 68.4 °F 100% 30.07 in 0.2 mi Calm Calm - N/A Fog Fog
4:58 AM 69.1 °F - 69.1 °F 100% 30.08 in 0.2 mi Calm Calm - N/A Fog Fog
5:58 AM 69.4 °F - 69.4 °F 100% 30.09 in 0.2 mi NE 3.5 mph - N/A Fog Fog
6:23 AM 69.8 °F - 69.8 °F 100% 30.09 in 1.0 mi North 3.5 mph - N/A   Mist
6:33 AM 69.8 °F - 69.8 °F 100% 30.09 in 0.8 mi NNE 2.3 mph - N/A   Mist
6:58 AM 69.4 °F - 69.4 °F 100% 30.10 in 0.5 mi North 2.3 mph - N/A Fog Fog
7:58 AM 69.8 °F - 69.8 °F 100% 30.12 in 0.2 mi North 3.5 mph - N/A Fog Fog
8:58 AM 70.9 °F - 70.9 °F 100% 30.14 in 0.2 mi North 4.6 mph - N/A Fog Fog
9:39 AM 71.6 °F - 71.6 °F 100% 30.13 in 0.5 mi NNE 4.6 mph - N/A Fog Fog
9:44 AM 71.6 °F - 71.6 °F 100% 30.13 in 1.0 mi NNE 2.3 mph - N/A   Mist
9:49 AM 71.6 °F - 71.6 °F 100% 30.13 in 1.2 mi NE 2.3 mph - N/A   Overcast
9:58 AM 72.0 °F - 72.0 °F 100% 30.14 in 2.5 mi ENE 3.5 mph - N/A   Overcast
10:03 AM 71.6 °F - 71.6 °F 100% 30.14 in 3.0 mi ENE 3.5 mph - N/A   Overcast
10:53 AM 73.4 °F - 73.4 °F 100% 30.14 in 10.0 mi NNW 2.3 mph - N/A   Overcast
10:58 AM 73.2 °F - 73.2 °F 100% 30.15 in 10.0 mi Variable 3.5 mph - N/A   Overcast
11:08 AM 73.4 °F - 73.4 °F 100% 30.14 in 10.0 mi Variable 2.3 mph - N/A   Overcast
11:28 AM 75.2 °F - 75.2 °F 100% 30.14 in 10.0 mi NW 4.6 mph - N/A   Scattered Clouds
11:58 AM 76.5 °F - 76.5 °F 100% 30.15 in 10.0 mi Variable 1.2 mph - N/A   Clear
12:33 PM 82.4 °F 89.5 °F 75.2 °F 79% 30.13 in 10.0 mi ENE 4.6 mph - N/A   Mostly Cloudy
12:48 PM 82.4 °F 89.5 °F 75.2 °F 79% 30.13 in 10.0 mi NNW 5.8 mph - N/A   Scattered Clouds
12:58 PM 81.7 °F 87.8 °F 74.7 °F 79% 30.14 in 10.0 mi Variable 4.6 mph - N/A   Partly Cloudy
1:58 PM 81.5 °F 86.9 °F 73.8 °F 77% 30.11 in 10.0 mi NNE 3.5 mph - N/A   Overcast
2:58 PM 85.3 °F 92.2 °F 73.0 °F 67% 30.08 in 10.0 mi Calm Calm - N/A   Partly Cloudy
3:58 PM 84.0 °F 90.2 °F 73.0 °F 69% 30.07 in 10.0 mi NNE 4.6 mph - N/A   Overcast
4:58 PM 84.7 °F 91.0 °F 72.5 °F 67% 30.06 in 10.0 mi Variable 2.3 mph - N/A   Clear
5:58 PM 84.0 °F 90.5 °F 73.2 °F 70% 30.06 in 10.0 mi ESE 6.9 mph - N/A   Scattered Clouds
6:58 PM 79.3 °F - 75.4 °F 88% 30.07 in 10.0 mi ESE 4.6 mph - N/A   Clear
7:58 PM 75.7 °F - 74.5 °F 96% 30.08 in 10.0 mi Calm Calm - N/A   Clear
8:58 PM 73.2 °F - 73.0 °F 99% 30.10 in 10.0 mi Calm Calm - N/A   Clear
9:58 PM 71.1 °F - 71.1 °F 100% 30.12 in 10.0 mi Calm Calm - N/A   Clear
10:58 PM 70.0 °F - 70.0 °F 100% 30.12 in 10.0 mi Calm Calm - N/A   Clear
11:58 PM 68.7 °F - 68.7 °F 100% 30.11 in 10.0 mi Calm Calm - N/A   Clear